Location: Dehesa de la Cepeda
(40.6574°N, 4.3013°W)
Time: 09:15:27
(UTC+00:00)

Transit 2A Rocket - Pass Details

Date: 11 August 2021
Orbit: 586 x 917 km, 66.7° (Epoch: 24 September)

Event Time Altitude Azimuth Distance (km) Brightness Sun altitude
Rises 20:30:06 0° 332° (NNW) 3,330 9.5 -12.6°
Reaches altitude 10° 20:32:28 10° 334° (NNW) 2,442 8.6 -13.0°
Maximum altitude 20:38:10 72° 59° (ENE) 918 5.3 -13.9°
Enters shadow 20:42:29 20° 141° (SE) 1,963 6.5 -14.6°
Drops below altitude 10° 20:44:12 10° 144° (SE) 2,581 - -14.9°
Sets 20:46:46 0° 146° (SSE) 3,533 - -15.3°
